Date String (YYYY-MM-DD hh:mm:ss) UTC,Instrument flags,Ambient pressure (hPa),Sample flow (lpm),Bypass flow (lpm),Sample temperature (°C),Ambient temperature (°C),ASC tube jacket temperature (°C),LED temperature (°C),Box temperature (°C),Sample RH (%),Span deviation,Mass concentration (μg/m³),Mass concentration (μg/m³),Mass concentration (μg/m³)
DateTimeUTC,F1_M11,P_M11,Q1_M11,Q2_M11,T1_M11,T2_M11,T3_M11,T4_M11,T5_M11,U1_M11,ZSPAN_M11,X0_M11,X2_M11,X1_M11
2023-01-18 23:00:00,,0817.6,4.99,0.00,21.3,18.9,00.0,30.3,22.6,17.4,0000.0,0007.34,0003.80,0003.55
2023-01-18 23:01:00,,0817.6,5.00,0.00,21.2,18.7,00.0,30.3,22.5,17.4,0000.0,0007.11,0003.78,0003.54
2023-01-18 23:02:00,,0817.6,5.00,0.00,21.1,18.5,00.0,30.2,22.4,17.5,0000.0,0007.01,0003.76,0003.52
2023-01-18 23:03:00,,0817.7,5.02,0.00,21.1,19.0,00.0,30.2,22.5,17.5,0000.0,0006.90,0003.72,0003.49
2023-01-18 23:04:00,,0817.7,4.99,0.00,21.2,20.6,00.0,30.1,22.8,17.5,0000.0,0006.72,0003.68,0003.45
2023-01-18 23:05:00,,0817.7,5.00,0.00,21.3,21.8,00.0,30.1,23.2,17.3,0000.0,0006.59,0003.63,0003.40
2023-01-18 23:06:00,,0817.7,4.99,0.00,21.4,21.7,00.0,30.2,23.3,17.2,0000.0,0006.20,0003.55,0003.34
2023-01-18 23:07:00,,0817.6,4.98,0.00,21.4,20.9,00.0,30.2,23.1,17.2,0000.0,0004.84,0003.48,0003.29
2023-01-18 23:08:00,,0817.7,5.00,0.00,21.3,20.2,00.0,30.2,22.9,17.3,0000.0,0004.79,0003.46,0003.26
2023-01-18 23:09:00,,0817.7,4.99,0.00,21.3,19.7,00.0,30.2,22.7,17.3,0000.0,0004.66,0003.44,0003.25
2023-01-18 23:10:00,,0817.7,5.00,0.00,21.2,19.3,00.0,30.2,22.6,17.4,0000.0,0004.55,0003.42,0003.25
2023-01-18 23:11:00,,0817.8,5.01,0.00,21.1,19.0,00.0,30.2,22.5,17.5,0000.0,0004.67,0003.44,0003.25
2023-01-18 23:12:00,,0817.7,5.03,0.00,21.1,18.7,00.0,30.1,22.4,17.6,0000.0,0004.79,0003.45,0003.26
2023-01-18 23:13:00,,0817.7,5.00,0.00,21.0,18.5,00.0,30.1,22.3,17.6,0000.0,0004.86,0003.47,0003.28
2023-01-18 23:14:00,,0817.8,4.99,0.00,20.9,18.7,00.0,30.0,22.3,17.7,0000.0,0004.96,0003.51,0003.31
2023-01-18 23:15:00,,0817.8,5.00,0.00,21.0,20.2,00.0,30.0,22.6,17.7,0000.0,0004.96,0003.53,0003.35
2023-01-18 23:16:00,,0817.8,4.99,0.00,21.2,21.6,00.0,30.0,23.0,17.5,0000.0,0005.17,0003.59,0003.39
2023-01-18 23:17:00,,0817.7,4.99,0.00,21.3,21.8,00.0,30.0,23.2,17.3,0000.0,0005.37,0003.65,0003.42
2023-01-18 23:18:00,,0817.8,4.99,0.00,21.3,20.9,00.0,30.1,23.0,17.3,0000.0,0005.43,0003.68,0003.46
2023-01-18 23:19:00,,0817.8,5.00,0.00,21.2,20.2,00.0,30.1,22.7,17.3,0000.0,0005.76,0003.69,0003.48
2023-01-18 23:20:00,,0817.8,4.99,0.00,21.2,19.6,00.0,30.1,22.6,17.4,0000.0,0006.33,0003.75,0003.52
2023-01-18 23:21:00,,0817.8,4.98,0.00,21.1,19.2,00.0,30.1,22.4,17.4,0000.0,0006.54,0003.81,0003.57
2023-01-18 23:22:00,,0817.9,5.01,0.00,21.0,18.9,00.0,30.0,22.3,17.5,0000.0,0006.61,0003.85,0003.62
2023-01-18 23:23:00,,0817.9,5.02,0.00,21.0,18.6,00.0,30.0,22.2,17.5,0000.0,0006.62,0003.89,0003.65
2023-01-18 23:24:00,,0817.9,5.01,0.00,20.9,18.4,00.0,30.0,22.1,17.6,0000.0,0006.82,0003.95,0003.68
2023-01-18 23:25:00,,0817.9,4.99,0.00,20.8,18.4,00.0,29.9,22.1,17.7,0000.0,0006.96,0003.99,0003.71
2023-01-18 23:26:00,,0818.0,5.00,0.00,20.9,19.8,00.0,29.9,22.4,17.7,0000.0,0007.14,0004.04,0003.73
2023-01-18 23:27:00,,0818.0,5.00,0.00,21.0,21.2,00.0,29.9,22.8,17.5,0000.0,0007.15,0004.05,0003.74
2023-01-18 23:28:00,,0818.0,4.99,0.00,21.1,21.9,00.0,29.9,23.0,17.4,0000.0,0007.25,0004.06,0003.75
2023-01-18 23:29:00,,0818.0,5.00,0.00,21.2,21.2,00.0,29.9,22.9,17.3,0000.0,0007.38,0004.08,0003.76
2023-01-18 23:30:00,,0818.0,4.99,0.00,21.1,20.3,00.0,30.0,22.7,17.3,0000.0,0007.49,0004.11,0003.77
2023-01-18 23:31:00,,0818.0,5.00,0.00,21.1,19.7,00.0,30.0,22.5,17.3,0000.0,0007.71,0004.09,0003.76
2023-01-18 23:32:00,,0818.0,5.00,0.00,21.0,19.2,00.0,29.9,22.4,17.4,0000.0,0007.67,0004.06,0003.74
2023-01-18 23:33:00,,0818.0,5.00,0.00,20.9,18.8,00.0,29.9,22.2,17.4,0000.0,0007.60,0004.03,0003.72
2023-01-18 23:34:00,,0818.0,5.01,0.00,20.9,18.6,00.0,29.9,22.1,17.5,0000.0,0007.57,0004.01,0003.71
2023-01-18 23:35:00,,0818.0,5.01,0.00,20.8,18.5,00.0,29.9,22.1,17.5,0000.0,0007.50,0003.99,0003.70
2023-01-18 23:36:00,,0818.0,5.00,0.00,20.8,19.7,00.0,29.8,22.4,17.5,0000.0,0007.46,0003.98,0003.70
2023-01-18 23:37:00,,0818.0,5.00,0.00,21.0,21.2,00.0,29.8,22.7,17.4,0000.0,0007.41,0003.95,0003.70
2023-01-18 23:38:00,,0818.0,5.00,0.00,21.1,22.0,00.0,29.8,23.0,17.2,0000.0,0007.38,0003.94,0003.70
2023-01-18 23:39:00,,0818.0,4.99,0.00,21.2,21.3,00.0,29.9,23.0,17.1,0000.0,0007.24,0003.93,0003.70
2023-01-18 23:40:00,,0818.0,5.01,0.00,21.1,20.4,00.0,29.9,22.7,17.2,0000.0,0007.10,0003.91,0003.70
2023-01-18 23:41:00,,0818.0,5.00,0.00,21.1,19.7,00.0,29.9,22.5,17.2,0000.0,0006.51,0003.91,0003.71
2023-01-18 23:42:00,,0818.0,4.99,0.00,21.0,19.2,00.0,29.9,22.4,17.2,0000.0,0005.80,0003.90,0003.70
2023-01-18 23:43:00,,0818.0,5.00,0.00,20.9,18.9,00.0,29.9,22.2,17.3,0000.0,0005.68,0003.89,0003.69
2023-01-18 23:44:00,,0818.0,4.99,0.00,20.8,18.6,00.0,29.9,22.1,17.3,0000.0,0005.59,0003.85,0003.67
2023-01-18 23:45:00,,0818.0,4.98,0.00,20.8,18.4,00.0,29.8,22.0,17.4,0000.0,0005.75,0003.85,0003.64
2023-01-18 23:46:00,,0818.0,5.02,0.00,20.8,19.4,00.0,29.8,22.2,17.4,0000.0,0005.89,0003.84,0003.61
2023-01-18 23:47:00,,0818.1,4.99,0.00,20.9,20.9,00.0,29.8,22.6,17.2,0000.0,0005.84,0003.81,0003.57
2023-01-18 23:48:00,,0818.1,5.01,0.00,21.1,21.9,00.0,29.8,22.9,17.1,0000.0,0005.80,0003.77,0003.52
2023-01-18 23:49:00,,0818.0,5.00,0.00,21.1,21.2,00.0,29.9,22.9,17.0,0000.0,0005.79,0003.71,0003.46
2023-01-18 23:50:00,,0818.0,5.01,0.00,21.1,20.3,00.0,29.9,22.7,17.0,0000.0,0006.10,0003.64,0003.40
2023-01-18 23:51:00,,0818.0,5.01,0.00,21.0,19.6,00.0,29.9,22.5,17.0,0000.0,0005.99,0003.58,0003.35
2023-01-18 23:52:00,,0818.0,5.00,0.00,20.9,19.1,00.0,29.9,22.3,17.0,0000.0,0005.96,0003.53,0003.29
2023-01-18 23:53:00,,0818.0,5.00,0.00,20.9,18.7,00.0,29.8,22.2,17.0,0000.0,0005.76,0003.44,0003.23
2023-01-18 23:54:00,,0818.0,4.99,0.00,20.8,18.4,00.0,29.8,22.1,17.1,0000.0,0005.60,0003.36,0003.16
2023-01-18 23:55:00,,0818.0,5.00,0.00,20.7,18.1,00.0,29.8,21.9,17.1,0000.0,0005.46,0003.31,0003.09
2023-01-18 23:56:00,,0818.0,5.01,0.00,20.7,19.0,00.0,29.7,22.1,17.2,0000.0,0005.17,0003.23,0003.00
2023-01-18 23:57:00,,0818.0,5.01,0.00,20.8,20.7,00.0,29.7,22.5,17.0,0000.0,0004.81,0003.15,0002.90
2023-01-18 23:58:00,,0818.0,5.00,0.00,21.0,21.9,00.0,29.7,22.9,16.9,0000.0,0005.59,0003.07,0002.82
2023-01-18 23:59:00,,0818.0,4.99,0.00,21.1,21.4,00.0,29.8,22.9,16.7,0000.0,0005.79,0002.93,0002.74
